Location: Fiddletown
(38.4917°N, 120.6633°W)
Time: 07:41:37
(UTC-07:00)

Envisat - Visible Passes

Search period start: 21 April 2015 00:00
Search period end: 01 May 2015 00:00
Orbit: 765 x 766 km, 98.3° (Epoch: 21 April)

Date Brightness Start Highest point End Pass type
(mag) Time Alt. Az. Time Alt. Az. Time Alt. Az.
21 Apr 2.8 22:06:48 75° ESE 22:07:05 79° ENE 22:12:11 10° N visible
21 Apr 5.7 23:47:00 10° W 23:47:00 10° W 23:47:36 10° WNW visible
22 Apr 3.7 21:29:40 32° E 21:30:36 35° ENE 21:35:13 10° N visible
22 Apr 4.7 23:09:52 25° W 23:09:52 25° W 23:13:50 10° NW visible
23 Apr 4.7 20:52:31 14° E 20:54:17 16° ENE 20:57:28 10° NNE visible
23 Apr 3.3 22:32:44 58° WSW 22:32:53 58° W 22:37:54 10° NNW visible
24 Apr 3.0 21:55:36 56° ESE 21:56:18 62° ENE 22:01:19 10° N visible
24 Apr 5.4 23:35:48 14° W 23:35:50 14° W 23:38:16 10° WNW visible
25 Apr 4.1 21:18:27 24° E 21:19:51 28° ENE 21:24:10 10° N visible
25 Apr 4.3 22:58:40 32° W 22:58:48 32° W 23:03:18 10° NNW visible
26 Apr 4.9 20:41:28 10° E 20:43:34 13° ENE 20:45:57 10° NE visible
26 Apr 3.0 22:21:32 67° SSW 22:22:03 74° W 22:27:09 10° NNW visible
27 Apr 3.3 21:44:24 41° ESE 21:45:30 48° ENE 21:50:24 10° N visible
27 Apr 5.1 23:24:36 18° W 23:24:51 18° W 23:28:10 10° NW visible
28 Apr 4.4 21:07:15 18° E 21:09:07 22° ENE 21:13:03 10° NNE visible
28 Apr 3.9 22:47:28 40° WSW 22:47:55 40° W 22:52:41 10° NNW visible
29 Apr 5.1 20:32:39 10° ENE 20:32:53 10° ENE 20:33:26 10° NE visible
29 Apr 2.9 22:10:20 62° SSE 22:11:14 87° ENE 22:16:21 10° NNW visible
30 Apr 3.6 21:33:12 31° ESE 21:34:43 38° ENE 21:39:26 10° N visible
30 Apr 4.8 23:13:24 22° WSW 23:13:55 23° W 23:17:49 10° NW visible
